THOR ABLESTAR DEB, 134

Orbit data source: Space-Track

THOR ABLESTAR DEB, 134 is space debris in LEO originally from a launch on Thu, 29 Jun 1961 UTC launched from the Air Force Eastern Test Range (AFETR). Debris objects in space refer to the collection of defunct objects orbiting the Earth. Examples of debris include non-operational satellites, rocket bodies, and fragments generated from explosions, collisions, or faulty payload assembly.

Loading next visibility...
Identifier
134, 1961-015U
Orbit
LEO
Last TLE update
6 hours ago
Origin
Manufacturer
Unknown
Mission
Spacecraft
Bus & Motor
Unknown
Mass
Unknown
Launch date (UTC)
1961-06-29 (64 years ago)
Launch vehicle
Unknown
Launch site
Air Force Eastern Test Range (AFETR)
Object type
Payload
Rocket body
Debris
Shape & HBR
Unknown
Radar Cross Section
1.600 m², Large (>1 m²)

Expand to show TLE details & history

TLE from 6 hours ago
0 THOR ABLESTAR DEB
1 00134U 61015U   25183.94792918  .00000059  00000-0  94053-4 0  9998
2 00134  66.8781 186.5624 0074246  83.0252 277.9269 13.97616587256896
Epoch: 2025-07-02T22:45Z
TLE epoch observation values (Epoch: 2025-07-02T22:45:01.081Z)
Latitude
0.00004°
Longitude
-75.9138°
Altitude
897.088 km
Speed
7.408 km/s
True Right ascension
12h 26m 14s
True Declination
0° 00' 00"
Sunlit
Object was in daylight at epoch
Visualization orbit readout
Latitude
-19.82272°
Longitude
112.26757°
Altitude
934.319 km
Speed
7.371 km/s
Apparent Right ascension
02h 28m 03s
Apparent Declination
-31° 52' 09"
Sunlit
Object is in daylight
Visualization observer readout
Local Sidereal Time
16:36:44
Azimuth
82.899° E
Elevation
-62.892°
Doppler factor
1
Orbital elements
Apogee altitude
954.48 km
Perigee altitude
846.399 km
Semi-major axis
7,278.576 km
Eccentricity
0.00742
Inclination
66.8781°
RAAN
186.5624°
Arg. of periapsis
83.0252°
True anomaly
Unknown
Mean anomaly
277.9269°
Eccentric anomaly
Unknown
Mean motion
3.49521 °/min
Orbital period
103 mins
BSTAR
0.000094053
Loading maneuver chart data...
Loading SW <> Apogee altitude chart data...

THOR ABLESTAR DEB Visibility forecast

Observer location: undefined°, undefined°

Span
Click to sort rows by Start time (UTC) header in descending order
Start Az.
Max El. time (UTC)
Max El. Az.
Max El.
End time (UTC)
End Az.
7 mins2025-07-03 09:35:19.649Z4.716° NNE2025-07-03 09:38:19.649Z40.369° NE19.139°2025-07-03 09:42:19.649Z88.221° E
9 mins2025-07-03 11:21:19.649Z323.558° NNW2025-07-03 11:25:19.649Z225.32° WSW43.229°2025-07-03 11:30:19.649Z162.227° S
8 mins2025-07-04 00:38:19.649Z153.033° SSE2025-07-04 00:41:19.649Z115.642° SE22.968°2025-07-04 00:46:19.649Z54.364° ENE
9 mins2025-07-04 02:23:19.649Z236.907° WSW2025-07-04 02:27:19.649Z302.681° NW36.176°2025-07-04 02:32:19.649Z16.35° NNE
|